Regional Weather Roundup
Issued by NWS

Home | Current Version | Previous Version | Text Only | Print | Product List | Glossary Off
Versions: 1 2 3 4 5 6 7 8 9 10 11 12 13 14 15 16 17 18 19 20 21 22 23 24 25 26 27 28 29 30 31 32 33 34 35 36 37 38 39 40 41 42 43 44 45 46 47 48 49 50

000
ASUS43 KOAX 270102
RWRNE

WEATHER ROUNDUP FOR NEBRASKA
NATIONAL WEATHER SERVICE OMAHA NE
800 PM CDT FRI AUG 26 2016

NOTES: SATELLITE DATA IS BEING USED TO AUGMENT CLOUD COVER ABOVE
       12000 FEET.
       "FAIR" INDICATES FEW OR NO CLOUDS BELOW 12,000 FEET WITH NO
       SIGNIFICANT WEATHER AND/OR OBSTRUCTIONS TO VISIBILITY.

  * THESE STATIONS DO NOT REPORT WEATHER SUCH AS RAIN...SNOW OR FOG.

NEZ001>004-019>022-054>056-270200-
NEBRASKA PANHANDLE

CITY           SKY/WX    TMP DP  RH WIND       PRES   REMARKS
SCOTTSBLUFF    PTCLDY    66  54  65 SE13      30.03F
ALLIANCE       CLOUDY    63  54  72 SE12      30.05S
CHADRON        CLOUDY    70  52  52 S15       29.99S
KIMBALL        CLOUDY    64  57  80 S8        30.07S
SIDNEY         CLOUDY    60  55  83 E15       30.05F
$$

NEZ057>060-069>072-079>082-270200-
SOUTHWEST NEBRASKA

CITY           SKY/WX    TMP DP  RH WIND       PRES   REMARKS
NORTH PLATTE   CLOUDY    62  59  90 SE16      30.00F
IMPERIAL       CLOUDY    61  58  90 E5        30.06R
LEXINGTON      CLOUDY    67  63  88 S3        30.06R
MCCOOK         CLOUDY    64  60  87 N24       30.07R
OGALLALA       CLOUDY    62  57  85 CALM      30.07S
$$

NEZ005>010-023>029-035>040-094-270200-
NORTH CENTRAL NEBRASKA

CITY           SKY/WX    TMP DP  RH WIND       PRES   REMARKS
VALENTINE      CLOUDY    63  57  81 SE6       30.04S
AINSWORTH      PTCLDY    65  56  72 SE8       30.03F
BROKEN BOW     CLOUDY    65  58  78 E8        30.03F
O`NEILL        MOCLDY    69  57  65 E8        30.04F
ORD            LGT RAIN  68  57  68 E6        30.02F
THEDFORD       CLOUDY    62  59  92 CALM      30.05F
$$

NEZ041-046>049-061>064-073>077-083>087-270200-
SOUTH CENTRAL NEBRASKA

CITY           SKY/WX    TMP DP  RH WIND       PRES   REMARKS
GRAND ISLAND   CLOUDY    66  62  87 E8        30.05S
AURORA         CLOUDY    64  64 100 NE3       30.05R FOG
HASTINGS       MOCLDY    65  62  90 E6        30.05R
HEBRON         CLOUDY    69  66  89 CALM      30.03R
HOLDREGE       PTCLDY    65  61  85 NE3       30.05R
KEARNEY *      PTCLDY    66  61  82 E6        30.03R
YORK           CLOUDY    64  64 100 CALM      30.05R FOG
$$

NEZ011>018-030>034-042>045-270200-
NORTHEAST NEBRASKA

CITY           SKY/WX    TMP DP  RH WIND       PRES   REMARKS
NORFOLK        CLOUDY    66  60  81 E8        30.05R
ALBION         CLOUDY    65  61  87 SE5       30.06S
BLAIR          CLOUDY    67  64  89 NE7       30.05R
FREMONT        CLOUDY    66  61  82 NE7       30.06R
TEKAMAH        CLOUDY    65  61  87 NE6       30.06R
WAYNE          CLOUDY    67  61  79 E7        30.07R
$$

NEZ050>053-065>068-078-088>093-270200-
SOUTHEAST NEBRASKA

CITY           SKY/WX    TMP DP  RH WIND       PRES   REMARKS
LINCOLN        CLOUDY    69  65  86 E7        30.05R
OMAHA EPPLEY   CLOUDY    69  63  81 E9        30.04R
BEATRICE       CLOUDY    70  67  88 NE6       30.03R
FALLS CITY     CLOUDY    71  70  96 CALM      30.01R
NEBRASKA CITY  CLOUDY    67  67 100 NE7       30.03R
PLATTSMOUTH    CLOUDY    68  65  89 NE3       30.04S
$$

NEZ044-045-051>053-067-270200-
OMAHA AREA

CITY           SKY/WX    TMP DP  RH WIND       PRES   REMARKS
OMAHA EPPLEY   CLOUDY    69  63  81 E9        30.04R
BLAIR          CLOUDY    67  64  89 NE7       30.05R
FREMONT        CLOUDY    66  61  82 NE7       30.06R
MILLARD        CLOUDY    69  64  82 CALM      30.04R
OFFUTT AFB     CLOUDY    68  65  90 NE5       30.03S
PLATTSMOUTH    CLOUDY    68  65  89 NE3       30.04S
WAHOO          CLOUDY    67  64  88 NE6       30.04R
$$




USA.gov is the U.S. government's official web portal to all federal, state and local government web resources and services.